Kuiper-00136

operational
NORAD ID: 65962 Int'l Des: 2025-228 Owner: KUIP Country: US Constellation: kuiper
NOTLE

About Kuiper-00136

Description loading...

Live Position

Loading 3D Globe...

Upcoming Passes

Altitude History

Altitude vs Time

uPlot chart will show altitude changes over time

Two-Line Element Set

1 65962U 25228R 25317.94243945 .00091328 00000-0 26045-2 0 9997
2 65962 51.8806 159.2960 0006175 245.3404 114.6939 15.35271056 5992
Epoch: Nov 13, 2025 • Age: 29 hours

Current Status

Altitude 473.2 km
Velocity 7.63 km/s
Sub-Earth Point -51.68°S, 58.51°W
Launch Date Oct 14, 2025
Age 32 days
Type internet

Technical Details

Classification Payload
Mass 490.00 kg
Dry Mass 490.00 kg
Total Mass 490.00 kg
Length 1.80 m
Diameter 0.70 m
Span 5.00 m
Shape Box + 2 pan
Manufacturer KUIP
Bus Type Kuiper
Phase Status In Orbit
Owner/State KUIP/US

Large Constellations

Loading constellations...